,,,PA_Meas_PMT16A,,PR_Meas_QMR101_102,,RH_Meas_QMH101,,SR_Meas_QMS101,,TA_Meas_QMH101,,GenWind,,GenWind,
date,time,status,PA,status,PR,status,RH,status,SR,status,TA,status,DirAvg,status,SpdAvg,
2008-10-06, 00:00:04,VALID,1006.04,VALID,0,VALID,86.3666,VALID,0,VALID,25.4169,VALID,341,VALID,0.712891,
2008-10-06, 00:01:04,VALID,1006,VALID,0,VALID,86.3437,VALID,0,VALID,25.4363,VALID,152,VALID,0.614453,
2008-10-06, 00:02:04,VALID,1006.01,VALID,0,VALID,86.2216,VALID,0,VALID,25.4753,VALID,26,VALID,1.09102,
2008-10-06, 00:03:04,VALID,1005.99,VALID,0,VALID,85.9393,VALID,0,VALID,25.5142,VALID,86,VALID,0.385156,
2008-10-06, 00:04:04,VALID,1006.01,VALID,0,VALID,85.8173,VALID,0,VALID,25.5337,VALID,67,VALID,0.824219,
2008-10-06, 00:05:04,VALID,1005.97,VALID,0,VALID,85.8249,VALID,0,VALID,25.5532,VALID,15,VALID,0.498047,
2008-10-06, 00:06:04,VALID,1005.99,VALID,0,VALID,85.7715,VALID,0,VALID,25.5337,VALID,15,VALID,0.617578,
2008-10-06, 00:07:04,VALID,1005.97,VALID,0,VALID,85.8631,VALID,0.100563,VALID,25.5532,VALID,24,VALID,0.851953,
2008-10-06, 00:08:04,VALID,1005.99,VALID,0,VALID,85.8478,VALID,0,VALID,25.5142,VALID,22,VALID,0.333984,
2008-10-06, 00:09:04,VALID,1005.93,VALID,0,VALID,85.9546,VALID,0,VALID,25.4753,VALID,22,VALID,0.242969,
2008-10-06, 00:10:04,VALID,1005.91,VALID,0,VALID,86.0995,VALID,0,VALID,25.4383,VALID,40,VALID,0.564062,
2008-10-06, 00:11:04,VALID,1005.92,VALID,0,VALID,86.2826,VALID,0.100563,VALID,25.3974,VALID,49,VALID,0.398828,
2008-10-06, 00:12:04,VALID,1005.91,VALID,0,VALID,86.4657,VALID,0,VALID,25.3993,VALID,48,VALID,0.217578,
2008-10-06, 00:13:04,VALID,1005.85,VALID,0,VALID,86.7404,VALID,0,VALID,25.3409,VALID,41,VALID,0.607422,
2008-10-06, 00:14:04,VALID,1005.87,VALID,0,VALID,86.954,VALID,0,VALID,25.2806,VALID,47,VALID,0.734375,
2008-10-06, 00:15:04,VALID,1005.83,VALID,0,VALID,86.8624,VALID,0,VALID,25.2806,VALID,45,VALID,0.280859,
2008-10-06, 00:16:04,VALID,1005.82,VALID,0,VALID,87.0074,VALID,0,VALID,25.2416,VALID,45,VALID,0.153516,
2008-10-06, 00:17:04,VALID,1005.83,VALID,0,VALID,87.1294,VALID,0,VALID,25.2046,VALID,36,VALID,0.381641,
2008-10-06, 00:18:04,VALID,1005.81,VALID,0,VALID,87.3812,VALID,0,VALID,25.1656,VALID,18,VALID,0.322266,
2008-10-06, 00:19:04,VALID,1005.81,VALID,0,VALID,87.6787,VALID,0,VALID,25.0877,VALID,17,VALID,0.366797,
2008-10-06, 00:20:04,VALID,1005.84,VALID,0,VALID,87.8923,VALID,0,VALID,25.0877,VALID,42,VALID,0.532031,
2008-10-06, 00:21:04,VALID,1005.81,VALID,0,VALID,87.9152,VALID,0,VALID,25.0663,VALID,43,VALID,0.367578,
2008-10-06, 00:22:04,VALID,1005.8,VALID,0,VALID,88.1059,VALID,0,VALID,25.0274,VALID,43,VALID,0.344922,
2008-10-06, 00:23:04,VALID,1005.77,VALID,0,VALID,88.1441,VALID,0,VALID,24.9885,VALID,43,VALID,0.476172,
2008-10-06, 00:24:04,VALID,1005.8,VALID,0,VALID,88.4416,VALID,0,VALID,24.9106,VALID,43,VALID,0.616797,
2008-10-06, 00:25:04,VALID,1005.8,VALID,0,VALID,89.0061,VALID,0,VALID,24.8327,VALID,39,VALID,0.937109,
2008-10-06, 00:26:04,VALID,1005.83,VALID,0,VALID,89.0443,VALID,0,VALID,24.8151,VALID,6,VALID,0.458984,
2008-10-06, 00:27:04,VALID,1005.83,VALID,0,VALID,89.3189,VALID,0.100563,VALID,24.7353,VALID,3,VALID,0.815625,
2008-10-06, 00:28:04,VALID,1005.8,VALID,0,VALID,89.647,VALID,0.100563,VALID,24.7353,VALID,350,VALID,0.533594,
2008-10-06, 00:29:04,VALID,1005.77,VALID,0,VALID,89.5936,VALID,0,VALID,24.7548,VALID,355,VALID,0.623047,
2008-10-06, 00:30:04,VALID,1005.77,VALID,0,VALID,89.7385,VALID,0,VALID,24.7548,VALID,60,VALID,0.599219,
2008-10-06, 00:31:04,VALID,1005.77,VALID,0,VALID,89.6088,VALID,0,VALID,24.8151,VALID,1,VALID,0.475391,
2008-10-06, 00:32:04,VALID,1005.73,VALID,0,VALID,89.4791,VALID,0,VALID,24.893,VALID,17,VALID,0.690234,
2008-10-06, 00:33:04,VALID,1005.72,VALID,0,VALID,89.0519,VALID,0,VALID,24.9495,VALID,350,VALID,0.59375,
2008-10-06, 00:34:04,VALID,1005.72,VALID,0,VALID,89.0138,VALID,0,VALID,24.9495,VALID,350,VALID,0.523828,
2008-10-06, 00:35:04,VALID,1005.73,VALID,0,VALID,89.0519,VALID,0,VALID,24.969,VALID,359,VALID,1.04414,
2008-10-06, 00:36:04,VALID,1005.74,VALID,0,VALID,88.7544,VALID,0.100563,VALID,25.0274,VALID,10,VALID,0.9875,
2008-10-06, 00:37:04,VALID,1005.72,VALID,0,VALID,88.4264,VALID,0,VALID,25.0663,VALID,3,VALID,0.874219,
2008-10-06, 00:38:04,VALID,1005.72,VALID,0,VALID,88.4721,VALID,0,VALID,25.045,VALID,341,VALID,0.915234,
2008-10-06, 00:39:04,VALID,1005.72,VALID,0,VALID,88.3195,VALID,0,VALID,25.0858,VALID,344,VALID,0.596484,
2008-10-06, 00:40:04,VALID,1005.71,VALID,0,VALID,88.3653,VALID,0,VALID,25.0663,VALID,358,VALID,0.969922,
2008-10-06, 00:41:04,VALID,1005.71,VALID,0,VALID,88.3424,VALID,0,VALID,25.1053,VALID,353,VALID,0.979688,
2008-10-06, 00:42:04,VALID,1005.69,VALID,0,VALID,88.1975,VALID,0,VALID,25.1637,VALID,18,VALID,1.10508,
2008-10-06, 00:43:04,VALID,1005.67,VALID,0,VALID,87.9457,VALID,0,VALID,25.1637,VALID,344,VALID,0.7,
2008-10-06, 00:44:04,VALID,1005.67,VALID,0,VALID,87.8008,VALID,0.100563,VALID,25.1832,VALID,350,VALID,0.517969,
2008-10-06, 00:45:04,VALID,1005.65,VALID,0,VALID,87.8923,VALID,0,VALID,25.1813,VALID,360,VALID,0.963281,
2008-10-06, 00:46:04,VALID,1005.65,VALID,0,VALID,87.7321,VALID,0,VALID,25.2027,VALID,345,VALID,0.573438,
2008-10-06, 00:47:04,VALID,1005.63,VALID,0,VALID,87.7855,VALID,0,VALID,25.1656,VALID,345,VALID,0.441016,
2008-10-06, 00:48:04,VALID,1005.59,VALID,0,VALID,88.0983,VALID,0,VALID,25.1072,VALID,5,VALID,0.460938,
2008-10-06, 00:49:04,VALID,1005.54,VALID,0,VALID,88.2585,VALID,0,VALID,25.1072,VALID,3,VALID,0.71875,
2008-10-06, 00:50:04,VALID,1005.55,VALID,0,VALID,88.2814,VALID,0,VALID,25.1267,VALID,359,VALID,0.900781,
2008-10-06, 00:51:04,VALID,1005.53,VALID,0,VALID,88.022,VALID,0,VALID,25.1053,VALID,354,VALID,1.01406,
2008-10-06, 00:52:04,VALID,1005.52,VALID,0,VALID,88.0373,VALID,0,VALID,25.1267,VALID,354,VALID,0.642969,
2008-10-06, 00:53:04,VALID,1005.53,VALID,0,VALID,88.1136,VALID,0,VALID,25.0663,VALID,356,VALID,0.775391,
2008-10-06, 00:54:04,VALID,1005.53,VALID,0,VALID,88.3424,VALID,0,VALID,25.0469,VALID,353,VALID,0.984375,
2008-10-06, 00:55:04,VALID,1005.53,VALID,0,VALID,88.4874,VALID,0,VALID,25.0488,VALID,5,VALID,0.775391,
2008-10-06, 00:56:04,VALID,1005.51,VALID,0,VALID,88.1059,VALID,0,VALID,25.1442,VALID,2,VALID,0.733984,
2008-10-06, 00:57:04,VALID,1005.49,VALID,0,VALID,87.6024,VALID,0,VALID,25.2221,VALID,356,VALID,0.709375,
2008-10-06, 00:58:04,VALID,1005.51,VALID,0,VALID,87.3659,VALID,0,VALID,25.2825,VALID,348,VALID,1.23281,
2008-10-06, 00:59:04,VALID,1005.55,VALID,0,VALID,87.1676,VALID,0,VALID,25.3,VALID,353,VALID,1.02734,
2008-10-06, 01:00:04,VALID,1005.56,VALID,0,VALID,87.0684,VALID,0,VALID,25.3195,VALID,341,VALID,0.589453,
2008-10-06, 01:01:04,VALID,1005.57,VALID,0,VALID,87.1752,VALID,0,VALID,25.3,VALID,357,VALID,0.622266,
2008-10-06, 01:02:04,VALID,1005.52,VALID,0,VALID,87.343,VALID,0,VALID,25.2416,VALID,354,VALID,0.807031,
2008-10-06, 01:03:04,VALID,1005.5,VALID,0,VALID,87.427,VALID,0.100563,VALID,25.2611,VALID,20,VALID,1.17422,
2008-10-06, 01:04:04,VALID,1005.5,VALID,0,VALID,87.1905,VALID,0,VALID,25.339,VALID,14,VALID,0.616016,
2008-10-06, 01:05:04,VALID,1005.47,VALID,0,VALID,87.0226,VALID,0,VALID,25.3195,VALID,15,VALID,0.619922,
2008-10-06, 01:06:04,VALID,1005.5,VALID,0,VALID,87.1981,VALID,0,VALID,25.2611,VALID,11,VALID,0.679688,
2008-10-06, 01:07:04,VALID,1005.45,VALID,0,VALID,87.5948,VALID,0,VALID,25.1832,VALID,18,VALID,0.759375,
2008-10-06, 01:08:04,VALID,1005.45,VALID,0,VALID,87.7321,VALID,0,VALID,25.1442,VALID,7,VALID,0.819531,
2008-10-06, 01:09:04,VALID,1005.49,VALID,0,VALID,88.1212,VALID,0,VALID,25.1248,VALID,10,VALID,1.09766,
2008-10-06, 01:10:04,VALID,1005.46,VALID,0,VALID,88.0907,VALID,0,VALID,25.1442,VALID,11,VALID,1.07969,
2008-10-06, 01:11:04,VALID,1005.44,VALID,0,VALID,87.9076,VALID,0,VALID,25.2027,VALID,350,VALID,0.864062,
2008-10-06, 01:12:04,VALID,1005.41,VALID,0,VALID,87.5567,VALID,0,VALID,25.2611,VALID,342,VALID,0.483203,
2008-10-06, 01:13:04,VALID,1005.37,VALID,0,VALID,87.1447,VALID,0,VALID,25.339,VALID,24,VALID,1.03594,
2008-10-06, 01:14:04,VALID,1005.37,VALID,0,VALID,86.6488,VALID,0.100563,VALID,25.4363,VALID,10,VALID,1.17344,
2008-10-06, 01:15:04,VALID,1005.36,VALID,0,VALID,86.5725,VALID,0,VALID,25.4753,VALID,14,VALID,0.418359,
2008-10-06, 01:16:04,VALID,1005.37,VALID,0,VALID,86.3971,VALID,0,VALID,25.4753,VALID,356,VALID,0.538672,
2008-10-06, 01:17:04,VALID,1005.35,VALID,0,VALID,86.3513,VALID,0,VALID,25.4948,VALID,36,VALID,0.578125,
2008-10-06, 01:18:04,VALID,1005.34,VALID,0,VALID,86.2674,VALID,0,VALID,25.5357,VALID,21,VALID,1.11914,
2008-10-06, 01:19:04,VALID,1005.32,VALID,0,VALID,86.1529,VALID,0,VALID,25.5142,VALID,19,VALID,0.830078,
2008-10-06, 01:20:04,VALID,1005.33,VALID,0,VALID,86.1148,VALID,0,VALID,25.4948,VALID,346,VALID,0.617188,
2008-10-06, 01:21:04,VALID,1005.32,VALID,0,VALID,86.1682,VALID,0,VALID,25.4753,VALID,19,VALID,0.638281,
2008-10-06, 01:22:04,VALID,1005.33,VALID,0,VALID,86.2979,VALID,0,VALID,25.4363,VALID,357,VALID,0.895703,
2008-10-06, 01:23:04,VALID,1005.33,VALID,0,VALID,86.3666,VALID,0,VALID,25.4169,VALID,356,VALID,0.744141,
2008-10-06, 01:24:04,VALID,1005.34,VALID,0,VALID,86.5344,VALID,0,VALID,25.3974,VALID,12,VALID,1.15234,
2008-10-06, 01:25:04,VALID,1005.32,VALID,0,VALID,86.5954,VALID,0,VALID,25.3974,VALID,3,VALID,0.573438,
2008-10-06, 01:26:04,VALID,1005.34,VALID,0,VALID,86.7709,VALID,0,VALID,25.3779,VALID,2,VALID,0.496094,
2008-10-06, 01:27:04,VALID,1005.32,VALID,0,VALID,86.9998,VALID,0,VALID,25.3604,VALID,2,VALID,0.157813,
2008-10-06, 01:28:04,VALID,1005.3,VALID,0,VALID,87.1752,VALID,0,VALID,25.3195,VALID,2,VALID,0.716016,
2008-10-06, 01:29:04,VALID,1005.32,VALID,0,VALID,87.1676,VALID,0,VALID,25.2806,VALID,30,VALID,0.59375,
2008-10-06, 01:30:04,VALID,1005.3,VALID,0,VALID,87.3812,VALID,0,VALID,25.2416,VALID,7,VALID,0.385156,
2008-10-06, 01:31:04,VALID,1005.3,VALID,0,VALID,87.6558,VALID,0,VALID,25.224,VALID,7,VALID,0.483203,
2008-10-06, 01:32:04,VALID,1005.33,VALID,0,VALID,87.5414,VALID,0,VALID,25.2027,VALID,25,VALID,1.08672,
2008-10-06, 01:33:04,VALID,1005.32,VALID,0,VALID,87.3125,VALID,0,VALID,25.2806,VALID,18,VALID,1.04609,
2008-10-06, 01:34:04,VALID,1005.32,VALID,0,VALID,87.1294,VALID,0,VALID,25.3214,VALID,31,VALID,0.832031,
2008-10-06, 01:35:04,VALID,1005.3,VALID,0,VALID,86.9006,VALID,0,VALID,25.3584,VALID,10,VALID,0.541016,
2008-10-06, 01:36:04,VALID,1005.29,VALID,0,VALID,86.5039,VALID,0,VALID,25.3974,VALID,10,VALID,0.984766,
2008-10-06, 01:37:04,VALID,1005.3,VALID,0,VALID,86.3513,VALID,0,VALID,25.4363,VALID,351,VALID,0.750781,
2008-10-06, 01:38:04,VALID,1005.26,VALID,0,VALID,85.8402,VALID,0,VALID,25.4948,VALID,348,VALID,1.56016,
2008-10-06, 01:39:04,VALID,1005.26,VALID,0,VALID,85.6342,VALID,0,VALID,25.5941,VALID,43,VALID,0.801953,
2008-10-06, 01:40:04,VALID,1005.27,VALID,0,VALID,85.1154,VALID,0.100563,VALID,25.633,VALID,349,VALID,1.50742,
2008-10-06, 01:41:04,VALID,1005.28,VALID,0,VALID,84.8255,VALID,0,VALID,25.67,VALID,12,VALID,1.72461,
2008-10-06, 01:42:04,VALID,1005.27,VALID,0,VALID,84.7492,VALID,0,VALID,25.7285,VALID,60,VALID,0.409766,
2008-10-06, 01:43:04,VALID,1005.29,VALID,0,VALID,84.4441,VALID,0,VALID,25.746,VALID,15,VALID,1.38984,
2008-10-06, 01:44:04,VALID,1005.25,VALID,0,VALID,84.1542,VALID,0,VALID,25.8083,VALID,23,VALID,0.702734,
2008-10-06, 01:45:04,VALID,1005.26,VALID,0,VALID,84.261,VALID,0,VALID,25.8259,VALID,23,VALID,0.533203,
2008-10-06, 01:46:04,VALID,1005.24,VALID,0,VALID,84.3678,VALID,0,VALID,25.8064,VALID,21,VALID,0.544531,
2008-10-06, 01:47:04,VALID,1005.22,VALID,0,VALID,84.383,VALID,0,VALID,25.7674,VALID,11,VALID,1.14492,
2008-10-06, 01:48:04,VALID,1005.21,VALID,0,VALID,84.4212,VALID,0,VALID,25.7694,VALID,336,VALID,0.691406,
2008-10-06, 01:49:04,VALID,1005.19,VALID,0,VALID,84.6653,VALID,0,VALID,25.7285,VALID,342,VALID,0.488281,
2008-10-06, 01:50:04,VALID,1005.19,VALID,0,VALID,84.9552,VALID,0,VALID,25.6506,VALID,23,VALID,0.826563,
2008-10-06, 01:51:04,VALID,1005.22,VALID,0,VALID,85.2604,VALID,0,VALID,25.5921,VALID,24,VALID,0.235547,
2008-10-06, 01:52:04,VALID,1005.16,VALID,0,VALID,85.4511,VALID,0,VALID,25.5746,VALID,35,VALID,0.466797,
2008-10-06, 01:53:04,VALID,1005.19,VALID,0,VALID,85.6647,VALID,0,VALID,25.5162,VALID,350,VALID,0.278516,
2008-10-06, 01:54:04,VALID,1005.17,VALID,0,VALID,85.947,VALID,0,VALID,25.4363,VALID,352,VALID,0.600781,
2008-10-06, 01:55:04,VALID,1005.22,VALID,0,VALID,86.0461,VALID,0,VALID,25.4383,VALID,8,VALID,0.275,
2008-10-06, 01:56:04,VALID,1005.27,VALID,0,VALID,86.1987,VALID,0,VALID,25.4188,VALID,8,VALID,0.414453,
2008-10-06, 01:57:04,VALID,1005.26,VALID,0,VALID,86.3284,VALID,0,VALID,25.3584,VALID,34,VALID,0.645703,
2008-10-06, 01:58:04,VALID,1005.27,VALID,0,VALID,86.4123,VALID,0,VALID,25.3779,VALID,21,VALID,0.316797,
2008-10-06, 01:59:04,VALID,1005.27,VALID,0,VALID,86.3513,VALID,0,VALID,25.3584,VALID,358,VALID,0.603906,
2008-10-06, 02:00:04,VALID,1005.26,VALID,0,VALID,86.3742,VALID,0,VALID,25.3798,VALID,356,VALID,0.378906,
2008-10-06, 02:01:04,VALID,1005.26,VALID,0,VALID,86.5039,VALID,0,VALID,25.339,VALID,356,VALID,0.205859,
2008-10-06, 02:02:04,VALID,1005.26,VALID,0,VALID,86.42,VALID,0,VALID,25.4188,VALID,22,VALID,0.757422,
2008-10-06, 02:03:04,VALID,1005.25,VALID,0,VALID,86.2216,VALID,0,VALID,25.4558,VALID,20,VALID,0.592969,
2008-10-06, 02:04:04,VALID,1005.27,VALID,0,VALID,85.9699,VALID,0,VALID,25.4772,VALID,14,VALID,1.67656,
2008-10-06, 02:05:04,VALID,1005.32,VALID,0,VALID,85.9393,VALID,0,VALID,25.5357,VALID,23,VALID,0.450781,
2008-10-06, 02:06:04,VALID,1005.3,VALID,0,VALID,86.0156,VALID,0,VALID,25.5162,VALID,24,VALID,0.317969,
2008-10-06, 02:07:04,VALID,1005.28,VALID,0,VALID,85.8478,VALID,0,VALID,25.5142,VALID,47,VALID,0.791797,
2008-10-06, 02:08:04,VALID,1005.29,VALID,0,VALID,85.8325,VALID,0,VALID,25.5357,VALID,44,VALID,0.558594,
2008-10-06, 02:09:04,VALID,1005.24,VALID,0,VALID,85.8173,VALID,0,VALID,25.5513,VALID,8,VALID,0.782812,
2008-10-06, 02:10:04,VALID,1005.3,VALID,0,VALID,86.1911,VALID,0.100563,VALID,25.5727,VALID,66,VALID,0.647266,
2008-10-06, 02:11:04,VALID,1005.29,VALID,0,VALID,86.1072,VALID,0,VALID,25.5532,VALID,42,VALID,0.720703,
2008-10-06, 02:12:04,VALID,1005.29,VALID,0,VALID,86.3513,VALID,0,VALID,25.5921,VALID,32,VALID,1.10039,
2008-10-06, 02:13:04,VALID,1005.29,VALID,0,VALID,86.481,VALID,0.100563,VALID,25.6136,VALID,70,VALID,0.668359,
2008-10-06, 02:14:04,VALID,1005.28,VALID,0,VALID,86.687,VALID,0,VALID,25.5337,VALID,67,VALID,0.766406,
2008-10-06, 02:15:04,VALID,1005.25,VALID,0,VALID,86.9464,VALID,0,VALID,25.5357,VALID,53,VALID,0.526953,
2008-10-06, 02:16:04,VALID,1005.22,VALID,0,VALID,87.221,VALID,0,VALID,25.4753,VALID,68,VALID,0.5375,
2008-10-06, 02:17:04,VALID,1005.23,VALID,0,VALID,87.5719,VALID,0,VALID,25.4558,VALID,61,VALID,0.309766,
2008-10-06, 02:18:04,VALID,1005.21,VALID,0,VALID,87.9381,VALID,0,VALID,25.3974,VALID,61,VALID,0.314063,
2008-10-06, 02:19:04,VALID,1005.22,VALID,0,VALID,87.8389,VALID,0,VALID,25.339,VALID,15,VALID,0.793359,
2008-10-06, 02:20:04,VALID,1005.25,VALID,0,VALID,88.0602,VALID,0.100563,VALID,25.339,VALID,32,VALID,0.601172,
2008-10-06, 02:21:04,VALID,1005.2,VALID,0,VALID,88.2738,VALID,0,VALID,25.3,VALID,25,VALID,0.317187,
2008-10-06, 02:22:04,VALID,1005.2,VALID,0,VALID,88.3806,VALID,0,VALID,25.3,VALID,24,VALID,0.728906,
2008-10-06, 02:23:04,VALID,1005.18,VALID,0,VALID,88.6247,VALID,0,VALID,25.2611,VALID,26,VALID,0.498047,
2008-10-06, 02:24:04,VALID,1005.18,VALID,0,VALID,88.7849,VALID,0,VALID,25.2046,VALID,27,VALID,0.512891,
2008-10-06, 02:25:04,VALID,1005.16,VALID,0,VALID,89.0443,VALID,0,VALID,25.1461,VALID,27,VALID,0.531641,
2008-10-06, 02:26:04,VALID,1005.11,VALID,0,VALID,89.235,VALID,0,VALID,25.0663,VALID,349,VALID,0.701563,
2008-10-06, 02:27:04,VALID,1005.12,VALID,0,VALID,89.5402,VALID,0,VALID,25.0079,VALID,349,VALID,0.437891,
2008-10-06, 02:28:04,VALID,1005.11,VALID,0,VALID,89.6165,VALID,0.100563,VALID,24.969,VALID,11,VALID,1.29883,
2008-10-06, 02:29:04,VALID,1005.1,VALID,0,VALID,89.6622,VALID,0,VALID,25.0488,VALID,355,VALID,0.553906,
2008-10-06, 02:30:04,VALID,1005.08,VALID,0,VALID,89.5631,VALID,0,VALID,25.0079,VALID,46,VALID,0.705859,
2008-10-06, 02:31:04,VALID,1005.09,VALID,0,VALID,89.7919,VALID,0,VALID,24.9885,VALID,1,VALID,0.370703,
2008-10-06, 02:32:04,VALID,1005.08,VALID,0,VALID,89.8835,VALID,0,VALID,24.969,VALID,348,VALID,0.360547,
2008-10-06, 02:33:04,VALID,1005.07,VALID,0,VALID,89.9369,VALID,0,VALID,24.9514,VALID,348,VALID,0,
2008-10-06, 02:34:04,VALID,1005.07,VALID,0,VALID,89.9216,VALID,0,VALID,24.9495,VALID,34,VALID,0.721875,
2008-10-06, 02:35:04,VALID,1005.05,VALID,0,VALID,89.6088,VALID,0,VALID,25.0079,VALID,359,VALID,0.975781,
2008-10-06, 02:36:04,VALID,1005.01,VALID,0,VALID,89.3647,VALID,0,VALID,25.0663,VALID,2,VALID,0.755859,
2008-10-06, 02:37:04,VALID,1005.05,VALID,0,VALID,89.113,VALID,0,VALID,25.1442,VALID,13,VALID,0.990625,
2008-10-06, 02:38:04,VALID,1005.05,VALID,0,VALID,88.6018,VALID,0.100563,VALID,25.1832,VALID,2,VALID,0.679297,
2008-10-06, 02:39:04,VALID,1005.03,VALID,0,VALID,88.5713,VALID,0,VALID,25.1832,VALID,13,VALID,0.678906,
2008-10-06, 02:40:04,VALID,1005.04,VALID,0,VALID,88.7925,VALID,0,VALID,25.1442,VALID,13,VALID,0.536328,
2008-10-06, 02:41:04,VALID,1004.99,VALID,0,VALID,88.8231,VALID,0,VALID,25.0858,VALID,1,VALID,0.781641,
2008-10-06, 02:42:04,VALID,1005.04,VALID,0,VALID,88.2509,VALID,0,VALID,25.1832,VALID,33,VALID,1.06875,
2008-10-06, 02:43:04,VALID,1005.02,VALID,0,VALID,87.7779,VALID,0,VALID,25.2611,VALID,27,VALID,1.41797,
2008-10-06, 02:44:04,VALID,1005.03,VALID,0,VALID,87.7626,VALID,0,VALID,25.2806,VALID,1,VALID,0.683984,
2008-10-06, 02:45:04,VALID,1005.04,VALID,0,VALID,87.8542,VALID,0.100563,VALID,25.2806,VALID,14,VALID,0.0582031,
2008-10-06, 02:46:04,VALID,1005.03,VALID,0,VALID,87.6101,VALID,0,VALID,25.2416,VALID,36,VALID,0.853125,
2008-10-06, 02:47:04,VALID,1005.01,VALID,0,VALID,87.4346,VALID,0.100563,VALID,25.3,VALID,77,VALID,0.720703,
2008-10-06, 02:48:04,VALID,1005,VALID,0,VALID,86.9769,VALID,0.100563,VALID,25.339,VALID,44,VALID,1.31406,
2008-10-06, 02:49:04,VALID,1005,VALID,0,VALID,86.6717,VALID,0.100563,VALID,25.3974,VALID,77,VALID,1.32031,
2008-10-06, 02:50:04,VALID,1004.99,VALID,0,VALID,86.6946,VALID,0,VALID,25.3974,VALID,31,VALID,0.252734,
2008-10-06, 02:51:04,VALID,1004.99,VALID,0,VALID,86.748,VALID,0,VALID,25.3779,VALID,32,VALID,0.231641,
2008-10-06, 02:52:04,VALID,1004.98,VALID,0,VALID,86.6565,VALID,0,VALID,25.339,VALID,27,VALID,1.40703,
2008-10-06, 02:53:04,VALID,1004.92,VALID,0,VALID,86.7709,VALID,0,VALID,25.3779,VALID,26,VALID,0.6,
2008-10-06, 02:54:04,VALID,1004.96,VALID,0,VALID,86.8319,VALID,0.100563,VALID,25.3779,VALID,57,VALID,0.370313,
2008-10-06, 02:55:04,VALID,1004.93,VALID,0,VALID,86.9158,VALID,0.100563,VALID,25.3195,VALID,59,VALID,0.353125,
2008-10-06, 02:56:04,VALID,1004.94,VALID,0,VALID,86.9769,VALID,0,VALID,25.3,VALID,64,VALID,0.296484,
2008-10-06, 02:57:04,VALID,1004.94,VALID,0,VALID,86.8624,VALID,0,VALID,25.2806,VALID,36,VALID,0.9625,
2008-10-06, 02:58:04,VALID,1004.94,VALID,0,VALID,86.9006,VALID,0,VALID,25.3,VALID,64,VALID,0.43125,
2008-10-06, 02:59:04,VALID,1004.94,VALID,0,VALID,86.8777,VALID,0.100563,VALID,25.3,VALID,39,VALID,0.4875,
2008-10-06, 03:00:04,VALID,1004.94,VALID,0,VALID,86.8319,VALID,0.100563,VALID,25.2806,VALID,70,VALID,0.467187,
2008-10-06, 03:01:04,VALID,1004.92,VALID,0,VALID,86.7404,VALID,0,VALID,25.3019,VALID,100,VALID,0.330859,
2008-10-06, 03:02:04,VALID,1004.93,VALID,0,VALID,86.9235,VALID,0,VALID,25.3019,VALID,100,VALID,0.255078,
2008-10-06, 03:03:04,VALID,1004.95,VALID,0,VALID,87.1828,VALID,0.100563,VALID,25.2611,VALID,55,VALID,0.427734,
2008-10-06, 03:04:04,VALID,1004.97,VALID,0,VALID,87.221,VALID,0.100563,VALID,25.2221,VALID,37,VALID,0.651563,
2008-10-06, 03:05:04,VALID,1004.93,VALID,0,VALID,87.1752,VALID,0.100563,VALID,25.1832,VALID,26,VALID,0.414453,
2008-10-06, 03:06:04,VALID,1004.94,VALID,0,VALID,86.9311,VALID,0,VALID,25.2027,VALID,18,VALID,0.491797,
2008-10-06, 03:07:04,VALID,1004.94,VALID,0,VALID,86.6717,VALID,0.100563,VALID,25.2611,VALID,68,VALID,0.345313,
2008-10-06, 03:08:04,VALID,1004.92,VALID,0,VALID,86.8319,VALID,0,VALID,25.2611,VALID,57,VALID,0.512109,
2008-10-06, 03:09:04,VALID,1004.9,VALID,0,VALID,87.282,VALID,0,VALID,25.2027,VALID,28,VALID,0.571875,
2008-10-06, 03:10:04,VALID,1004.91,VALID,0,VALID,87.2439,VALID,0,VALID,25.1656,VALID,22,VALID,0.287109,
2008-10-06, 03:11:04,VALID,1004.9,VALID,0,VALID,87.4727,VALID,0,VALID,25.1053,VALID,22,VALID,0.182422,
2008-10-06, 03:12:04,VALID,1004.92,VALID,0,VALID,87.8008,VALID,0,VALID,25.0877,VALID,22,VALID,0.234375,
2008-10-06, 03:13:04,VALID,1004.92,VALID,0,VALID,88.3501,VALID,0,VALID,25.0079,VALID,22,VALID,0.319531,
2008-10-06, 03:14:04,VALID,1004.95,VALID,0,VALID,88.5103,VALID,0,VALID,24.9514,VALID,22,VALID,0.046875,
2008-10-06, 03:15:04,VALID,1004.96,VALID,0,VALID,88.8536,VALID,0,VALID,24.8735,VALID,22,VALID,0,
2008-10-06, 03:16:04,VALID,1004.95,VALID,0,VALID,89.0748,VALID,0,VALID,24.7956,VALID,22,VALID,0,
2008-10-06, 03:17:04,VALID,1004.98,VALID,0,VALID,89.3037,VALID,0,VALID,24.7353,VALID,22,VALID,0,
2008-10-06, 03:18:04,VALID,1004.99,VALID,0,VALID,89.4257,VALID,0,VALID,24.6964,VALID,22,VALID,0,
2008-10-06, 03:19:04,VALID,1005,VALID,0,VALID,89.4944,VALID,0,VALID,24.6964,VALID,50,VALID,0.576953,
2008-10-06, 03:20:04,VALID,1005.02,VALID,0,VALID,89.6927,VALID,0,VALID,24.7159,VALID,57,VALID,0.0949219,
2008-10-06, 03:21:04,VALID,1005.03,VALID,0,VALID,89.8377,VALID,0,VALID,24.6964,VALID,57,VALID,0.405469,
2008-10-06, 03:22:04,VALID,1005.03,VALID,0,VALID,89.8224,VALID,0,VALID,24.638,VALID,57,VALID,0.326172,
2008-10-06, 03:23:04,VALID,1005.05,VALID,0,VALID,90.1505,VALID,0,VALID,24.5796,VALID,57,VALID,0.238672,
2008-10-06, 03:24:04,VALID,1005.02,VALID,0,VALID,90.3412,VALID,0,VALID,24.5425,VALID,17,VALID,0.573828,
2008-10-06, 03:25:04,VALID,1005.04,VALID,0,VALID,90.4175,VALID,0,VALID,24.523,VALID,9,VALID,0.423828,
2008-10-06, 03:26:04,VALID,1005.05,VALID,0,VALID,90.3946,VALID,0,VALID,24.5425,VALID,18,VALID,0.605469,
2008-10-06, 03:27:04,VALID,1005.04,VALID,0,VALID,90.1886,VALID,0.100563,VALID,24.5814,VALID,27,VALID,0.147656,
2008-10-06, 03:28:04,VALID,1005.01,VALID,0,VALID,90.0742,VALID,0,VALID,24.599,VALID,27,VALID,0.628906,
2008-10-06, 03:29:04,VALID,1005,VALID,0,VALID,89.8835,VALID,0,VALID,24.6185,VALID,23,VALID,0.885547,
2008-10-06, 03:30:04,VALID,1004.99,VALID,0,VALID,89.7385,VALID,0,VALID,24.6574,VALID,32,VALID,0.739453,
2008-10-06, 03:31:04,VALID,1004.96,VALID,0,VALID,89.5936,VALID,0.100563,VALID,24.6769,VALID,20,VALID,0.505859,
2008-10-06, 03:32:04,VALID,1004.96,VALID,0,VALID,89.5478,VALID,0,VALID,24.638,VALID,22,VALID,0.417188,
2008-10-06, 03:33:04,VALID,1004.94,VALID,0,VALID,89.6699,VALID,0,VALID,24.6398,VALID,22,VALID,0.0925781,
2008-10-06, 03:34:04,VALID,1004.94,VALID,0,VALID,89.708,VALID,0,VALID,24.5972,VALID,43,VALID,0.587109,
2008-10-06, 03:35:04,VALID,1004.92,VALID,0,VALID,89.7156,VALID,0,VALID,24.599,VALID,16,VALID,0.230469,
2008-10-06, 03:36:04,VALID,1004.91,VALID,0,VALID,89.8453,VALID,0,VALID,24.562,VALID,16,VALID,0.294531,
2008-10-06, 03:37:04,VALID,1004.88,VALID,0,VALID,89.9674,VALID,0,VALID,24.5601,VALID,96,VALID,0.84375,
2008-10-06, 03:38:04,VALID,1004.87,VALID,0,VALID,89.6775,VALID,0,VALID,24.6574,VALID,74,VALID,1.18398,
2008-10-06, 03:39:04,VALID,1004.87,VALID,0,VALID,89.0519,VALID,0,VALID,24.8346,VALID,52,VALID,0.355469,
2008-10-06, 03:40:04,VALID,1004.84,VALID,0,VALID,88.5332,VALID,0,VALID,24.9125,VALID,17,VALID,0.209375,
2008-10-06, 03:41:04,VALID,1004.86,VALID,0,VALID,88.2585,VALID,0,VALID,24.9514,VALID,21,VALID,0.528906,
2008-10-06, 03:42:04,VALID,1004.86,VALID,0,VALID,87.7245,VALID,0,VALID,25.0293,VALID,66,VALID,1.05742,
2008-10-06, 03:43:04,VALID,1004.91,VALID,0,VALID,87.1905,VALID,0,VALID,25.1248,VALID,36,VALID,0.659375,
2008-10-06, 03:44:04,VALID,1004.9,VALID,0,VALID,86.9082,VALID,0,VALID,25.1832,VALID,51,VALID,0.210547,
2008-10-06, 03:45:04,VALID,1004.93,VALID,0,VALID,86.7709,VALID,0,VALID,25.1656,VALID,101,VALID,0.504297,